Regional Weather Roundup
Issued by NWS

Home | Current Version | Previous Version | Text Only | Print | Product List | Glossary Off
Versions: 1 2 3 4 5 6 7 8 9 10 11 12 13 14 15 16 17 18 19 20 21 22 23 24 25 26 27 28 29 30 31 32 33 34 35 36 37 38 39 40 41 42 43 44 45 46 47 48 49 50

000
ASUS45 KPSR 211510
RWRAZ

ARIZONA REGIONAL HOURLY WEATHER ROUNDUP
NATIONAL WEATHER SERVICE PHOENIX AZ
800 AM MST SUN SEP 21 2014

NOTE: FAIR INDICATES FEW OR NO CLOUDS BELOW 12,000 FEET WITH NO
SIGNIFICANT WEATHER AND/OR OBSTRUCTIONS TO VISIBILITY.

AZZ001>003-036-211600-
NORTHWEST ARIZONA

CITY           SKY/WX    TMP DP  RH WIND       PRES   REMARKS
BULLHEAD CITY  SUNNY     86  61  42 N10       29.90R
KINGMAN        MOSUNNY   73  58  59 N7        30.07R
$$

AZZ004>008-015-016-018-211600-
NORTH CENTRAL ARIZONA

CITY           SKY/WX    TMP DP  RH WIND       PRES   REMARKS
GRAND CANYON   MOSUNNY   64  56  75 S7        30.28S
PRESCOTT       MOSUNNY   68  53  58 S5        30.19R
FLAGSTAFF      SUNNY     62  54  74 CALM      30.32S
PAYSON         MOSUNNY   68  57  68 E5        30.23R
PAGE           LGT RAIN  66  60  81 N3        30.15F
$$

AZZ009>014-017-211600-
NORTHEAST ARIZONA

CITY           SKY/WX    TMP DP  RH WIND       PRES   REMARKS
WINSLOW        SUNNY     69  55  60 SE3       30.20R
SAINT JOHNS    SUNNY     67  54  63 CALM      30.26R
WINDOW ROCK    LGT RAIN  62  50  64 S5        30.35
SHOW LOW       SUNNY     64  52  63 S3        30.32R
$$

AZZ023-211600-
GREATER PHOENIX AREA

CITY           SKY/WX    TMP DP  RH WIND       PRES   REMARKS
PHOENIX        MOSUNNY   83  64  52 E6        29.94R
BUCKEYE          N/A     77  59  53 CALM      29.94R
GLENDALE       PTSUNNY   81  64  57 CALM      29.96R
LUKE AFB       PTSUNNY   80  57  45 NW5       29.94R
DEER VALLEY    MOSUNNY   81  64  56 E5        29.96R
SCOTTSDALE     MOSUNNY   81  65  58 CALM      29.97R
MESA-FALCON    MOSUNNY   81  63  54 N6        29.95R
MESA-GATEWAY   MOSUNNY   82  64  54 SE5       29.98R
CHANDLER       PTSUNNY   81  64  57 CALM      29.96R
$$

AZZ027-028-211600-
SOUTHWEST MARICOPA COUNTY AND PINAL COUNTY

CITY           SKY/WX    TMP DP  RH WIND       PRES   REMARKS
CASA GRANDE    PTSUNNY   79  59  50 CALM      29.97R
$$

AZZ503-504-507>509-211600-
SOUTHEAST ARIZONA

CITY           SKY/WX    TMP DP  RH WIND       PRES   REMARKS
TUCSON         PTSUNNY   76  64  66 SE7       30.06R
DAVIS-MONTHAN  MOSUNNY   74  65  74 SE5       30.04R
RYAN FIELD       N/A     73  68  83 CALM      30.05R
NOGALES        PTSUNNY   71  66  84 SW3       30.12R
SIERRA VISTA   MOSUNNY   73  63  70 CALM      30.18R
DOUGLAS        MOSUNNY   68  64  87 CALM      30.14R
SAFFORD        SUNNY     75  61  61 SE12      30.08R
$$

AZZ020-021-025-026-031-211600-
SOUTHWEST ARIZONA

CITY           SKY/WX    TMP DP  RH WIND       PRES   REMARKS
YUMA           MOSUNNY   83  55  38 NE8       29.86R
$$

CAZ031-033-041-043-047-048-061-211600-
SOUTHERN CALIFORNIA

CITY           SKY/WX    TMP DP  RH WIND       PRES   REMARKS
DOWNTOWN L.A.  CLOUDY    68  62  81 CALM      29.98R
L.A. AIRPORT   PTSUNNY   69  62  78 CALM      29.99R
SAN DIEGO      PTSUNNY   72  61  68 NE3       29.98R
BURBANK        CLOUDY    65  58  78 CALM      29.99R
ONTARIO        CLOUDY    66  59  78 CALM      29.99R
RIVERSIDE      CLOUDY    66  59  78 CALM      30.00R
PALM SPRINGS   SUNNY     77  56  48 CALM      29.89R
EL CENTRO NAS  SUNNY     80  48  32 W8        29.84R
IMPERIAL       SUNNY     78  50  37 S3        29.84R
BLYTHE         SUNNY     81  60  48 SE3       29.87R
NEEDLES        SUNNY     86  57  37 CALM      29.90R
$$

NVZ020-UTZ003-211600-
SOUTHERN NEVADA-UTAH

CITY           SKY/WX    TMP DP  RH WIND       PRES   REMARKS
LAS VEGAS      MOSUNNY   77  59  53 VRB3      29.98R
SALT LAKE CITY CLOUDY    68  53  58 SE8       30.16R
$$

NMZ009-TXZ055-211600-
NEW MEXICO-WEST TEXAS

CITY           SKY/WX    TMP DP  RH WIND       PRES   REMARKS
ALBUQUERQUE    MOSUNNY   70  55  59 E21       30.31R
EL PASO        PTSUNNY   74  64  71 N6        30.16R
$$


........................KEY........................
SKY/WX - SKY CONDITION/WEATHER
TMP    - TEMPERATURE IN FAHRENHEIT
DP     - DEW POINT IN FAHRENHEIT
RH     - RELATIVE HUMIDITY IN PERCENT
WIND   - DIRECTION AND SPEED IN MILES PER HOUR (MPH)
VRB    - VARIABLE WIND DIRECTION
PRES   - MEAN SEA LEVEL PRESSURE IN INCHES OF MERCURY
         F - FALLING PRESSURE   R - RISING PRESSURE
         S - STEADY PRESSURE
VSB    - VISIBILITY IN MILES
HX     - HEAT INDEX IN FAHRENHEIT
WCI    - WIND CHILL INDEX IN FAHRENHEIT
TC     - TEMPERATURE IN CELSIUS WHICH IS ALSO KNOWN AS
         TEMPERATURE IN CENTIGRADE
AFB    - AIR FORCE BASE
         LUKE AFB IS LUKE AIR FORCE BASE
         DAVIS-MONTHAN IS DAVIS-MONTHAN AIR FORCE BASE
NAS    - NAVAL AIR STATION
         EL CENTRO NAS IS EL CENTRO NAVAL AIR STATION
N/A    - NOT AVAILABLE



USA.gov is the U.S. government's official web portal to all federal, state and local government web resources and services.